Terminal Aerodrome Forecast
Issued by NWS

Home | Current Version | Previous Version | Text Only | Print | Product List | Glossary On
Versions: 1 2 3 4 5 6 7 8 9 10 11 12 13 14 15 16 17 18 19 20
000
FTUS44 KSJT 222300
TAFBBD
TAF
KBBD 222339Z 2300/2324 01006KT P6SM BKN250
     FM231400 35011KT 5SM -SHRA BR BKN012
     FM232100 35014KT P6SM VCSH BKN025=

USA.gov is the U.S. government's official web portal to all federal, state and local government web resources and services.